Showing default

OPS 6582 (TRANSIT 5E-5), 959

Orbit data source: Space-Track

OPS 6582 (TRANSIT 5E-5), 959 is a payload satellite owned by USN BuWeps (US) in LEO that was launched on Sun, 13 Dec 1964 UTC via a THOR ABLESTAR launch vehicle from the Air Force Western Test Range (AFWTR). Payload-class satellites include a variety of spacecraft equipped with specific instruments for various scientific and technological missions. These include communications satellites like Starlink; space stations such as the ISS; scientific satellites like the Hubble; Earth observation satellites from companies like Planet Labs, Umbra, and HawkEye 360; GPS; miniature CubeSats for education and research; and military/defense satellites.

Loading next visibility...
Identifier
959, 1964-083C
Orbit
LEO
Country
Flag of USUS
Related business
Manufacturer
APL
Mission
Spacecraft
Bus & Motor
TRANSIT 5, Unknown motor
Mass
77 kg wet, 77 kg dry
Launch date (UTC)
1964-12-13 (62 years ago)
Launch vehicle
THOR ABLESTAR
Launch site
Air Force Western Test Range (AFWTR)
Object type
Payload
Rocket body
Debris
Shape & HBR
OCT CYL + 4 PAN + ANT, 3.0 m
Radar Cross Section
Medium (>0.1 m² and <1 m²)

Expand to show TLE details & history
Last TLE update: 14 hours ago

TLE from 14 hours ago
0 OPS 6582 (TRANSIT 5E-5)
1 00959U 64083C   26207.99205021  .00000176  00000-0  21314-3 0  9997
2 00959  90.0088 187.3713 0041739 182.5600 239.0007 13.62505903 55630
Epoch: 2026-07-26T23:48Z
TLE epoch observation values (Epoch: 2026-07-26T23:48:33.138Z)
Latitude
61.24034°
Longitude
-114.46476°
Altitude
1,053.167 km
Speed
7.323 km/s
True Right ascension
12h 29m 25s
True Declination
61° 06' 03"
Sunlit
Object was in daylight at epoch
Visualization orbit readout
Latitude
Unknown
Longitude
Unknown
Altitude
Unknown
Speed
Unknown
Apparent Right ascension
Unknown
Apparent Declination
Unknown
Sunlit
N/A
Visualization observer readout
Local Sidereal Time
02:52:18
Azimuth
Unknown
Elevation
Unknown
Doppler factor
Unknown
Orbital elements
Apogee altitude
1,054.525 km
Perigee altitude
992.736 km
Semi-major axis
7,401.767 km
Eccentricity
0.00417
Inclination
90.0088°
RAAN
187.3713°
Arg. of periapsis
182.56°
True anomaly
238.59182°
Mean anomaly
239.0007°
Eccentric anomaly
238.79615°
Mean motion
3.40832 °/min
Orbital period
105.62 mins
BSTAR
0.00021314
Loading maneuver chart data...
Computing Atmospheric mass density...

Documentation

Showing up to 5 results
|